RH
34 36 36 30 26 25 28 27 78 83 92 87 83 79 71 73 68 53 49 55 51 60 53 54 56 58 62 66 76 81 86 91 89 91 95 96 93 89 90 92 87 92 90 88
34 36 26 22 22 21 28 44 88 77 78 78 74 81 73 78 69 51 55 51 55 52 55 57 59 60 62 66 74 84 83 89 86 89 93 93 95 95 96 95 88 89 86 83
39 28 21 21 25 24 24 28 82 77 72 75 79 84 84 76 72 72 52 45 49 51 59 59 64 62 63 66 71 81 86 84 88 91 97 97 96 96 95 94 93 91 84 84
32 24 22 28 27 23 45 27 38 75 79 86 70 86 89 86 88 83 57 50 48 48 57 57 59 62 62 62 65 78 85 82 89 93 91 90 90 94 96 94 93 92 91 88
28 25 25 26 23 18 21 22 42 64 84 83 80 81 84 82 83 85 64 57 45 47 54 59 57 57 59 61 64 76 84 88 92 93 89 89 91 93 94 95 91 91 91 91
23 19 19 20 18 16 20 48 67 81 86 87 80 78 89 95 76 78 60 61 52 43 53 55 52 54 57 65 65 74 84 92 93 90 90 86 88 92 95 94 95 96 95 96
28 26 20 15 20 20 21 63 85 89 88 74 81 88 78 78 67 63 62 67 58 52 54 54 58 58 59 69 72 71 81 90 95 93 91 87 87 91 91 89 95 96 96 96
42 37 22 17 18 18 27 42 64 72 74 70 78 85 81 82 61 61 56 64 81 74 72 64 61 59 59 65 75 68 72 84 90 93 92 91 91 94 96 88 96 96 95 91
47 38 23 16 16 17 28 32 33 51 61 62 92 89 78 83 83 72 88 83 88 84 82 78 82 80 62 63 72 69 70 75 86 92 95 93 94 93 89 89 90 95 93 92
39 42 33 22 21 28 21 25 35 44 54 75 94 96 95 96 97 96 99 98 97 94 92 83 84 86 80 76 77 73 84 79 94 94 94 91 93 92 91 91 90 91 91 92
60 49 36 32 33 36 36 40 42 42 60 72 94 91 90 90 94 95 96 96 95 93 97 96 97 97 94 96 97 98 97 97 94 96 96 94 95 93 93 93 90 93 93 92
45 48 50 34 28 26 37 34 38 42 59 92 92 96 88 91 94 93 91 97 97 97 98 97 98 97 97 97 96 97 97 98 98 97 96 95 95 96 96 94 92 92 92 92
32 45 52 37 28 27 24 25 52 41 60 85 84 98 91 92 97 95 96 96 97 97 97 98 98 99 98 97 97 97 97 98 97 98 98 99 99 98 97 96 96 94 92 92
44 50 51 47 37 40 27 24 31 36 45 82 93 96 98 93 95 93 90 87 89 93 96 98 98 99 98 99 98 98 98 97 99 98 97 98 99 97 98 98 98 98 96 92
40 45 47 35 33 34 25 26 27 36 50 49 91 90 90 88 87 92 83 84 80 82 85 88 92 94 97 98 98 97 98 98 98 99 99 99 98 98 98 98 98 98 98 98
40 52 48 47 30 32 27 26 31 58 80 87 81 93 82 86 87 87 80 76 76 74 74 73 81 86 85 89 90 90 96 98 97 98 99 99 98 98 98 97 97 98 97 98
55 48 62 63 43 28 37 30 32 64 79 73 84 83 86 89 86 83 80 74 72 68 70 76 86 92 88 87 80 88 88 84 92 95 96 97 98 98 98 97 96 96 98 97
43 53 61 76 56 58 34 30 60 82 83 84 91 86 83 82 78 75 66 64 62 61 62 62 65 77 82 79 70 68 72 76 80 85 90 91 94 97 96 96 96 96 97 97
41 58 65 55 64 51 36 31 30 70 92 85 85 82 73 65 61 63 58 55 58 59 62 64 66 74 76 76 74 75 75 74 74 74 74 76 85 93 91 92 94 95 96 96
39 46 52 68 56 64 49 38 38 68 95 75 76 77 65 64 85 69 56 53 60 62 63 72 76 75 78 83 77 77 83 87 92 91 84 80 77 72 75 86 90 92 92 92
61 64 54 66 64 58 47 51 42 50 60 78 75 77 70 81 84 74 58 62 61 68 73 73 75 84 93 92 81 88 84 90 92 84 83 82 81 80 83 79 75 74 84 79
73 64 71 70 71 63 55 51 45 56 85 83 83 88 90 83 72 70 72 70 73 73 70 71 81 87 92 87 79 91 90 86 82 83 82 84 82 76 76 87 76 69 65 64
71 69 83 79 82 68 68 73 65 68 80 86 81 87 77 77 75 73 75 76 76 72 75 78 83 90 94 92 86 92 93 86 83 85 86 84 81 80 82 86 86 76 72 70
75 73 86 80 74 68 56 56 60 73 79 80 79 74 70 81 79 74 71 73 76 79 83 83 84 91 95 91 90 94 92 89 88 90 89 87 87 89 88 81 81 82 81 83
77 75 76 81 78 65 54 57 55 59 74 75 74 73 72 75 77 74 73 70 71 77 86 87 92 95 94 93 91 92 93 90 92 93 93 94 92 94 92 86 89 84 84 91
92 81 85 86 79 83 66 56 57 51 56 59 61 65 64 62 65 64 70 72 76 83 88 93 95 93 93 93 92 91 90 89 92 95 95 95 92 91 90 92 93 80 80 85
Wind_Speed
4 5 6 8 6 4 4 2 7 5 4 4 2 9 16 7 8 17 7 10 15 16 18 16 14 13 10 7 7 8 8 5 5 3 3 3 2 1 1 2 4 6 5 4
6 5 8 6 7 4 5 3 4 7 8 3 5 9 12 8 9 13 6 11 14 13 12 15 13 13 12 10 8 7 8 8 4 4 2 3 2 2 0 1 1 1 4 5
5 4 7 4 2 5 3 4 6 6 7 4 7 1 10 7 5 5 6 9 15 17 15 15 14 14 12 11 11 10 9 9 6 6 4 3 3 3 2 1 1 2 2 3
4 5 3 3 3 6 1 6 8 15 7 4 4 3 4 3 4 20 12 9 15 15 14 18 17 14 15 14 10 9 8 8 7 7 5 5 4 3 3 3 2 2 3 3
7 4 4 5 8 7 8 8 11 14 5 6 3 3 3 5 5 8 16 8 11 17 19 19 18 18 16 13 13 10 7 7 7 7 6 5 3 2 2 1 3 2 2 4
7 3 5 8 5 8 3 6 12 6 4 0 8 5 4 6 12 10 9 9 8 14 13 17 20 17 14 11 11 10 10 7 7 7 7 8 7 6 3 3 3 2 2 2
6 5 5 6 3 1 5 8 3 4 1 6 8 4 3 6 6 17 14 12 11 14 12 11 12 14 13 13 13 12 11 9 8 7 7 7 7 7 6 5 4 4 3 3
2 6 7 4 10 8 7 11 7 6 4 1 4 4 1 6 9 9 9 10 8 8 10 11 15 13 14 14 14 14 13 9 9 8 7 6 6 4 4 4 4 4 4 4
4 6 3 5 5 10 4 5 7 7 3 5 2 3 2 3 7 9 9 7 6 3 5 5 9 4 8 11 14 16 14 10 9 8 6 6 6 6 5 6 5 3 3 3
4 3 2 5 2 3 9 8 4 4 5 4 1 0 4 2 8 10 8 8 6 3 6 4 6 13 14 5 5 7 8 7 6 6 5 5 6 6 5 4 5 5 5 6
1 3 6 1 2 6 3 2 7 6 4 7 4 3 3 5 7 9 8 7 6 5 5 7 5 4 7 8 9 8 6 3 6 6 4 4 5 5 3 4 5 5 4 5
1 3 1 6 4 4 2 7 6 7 3 3 5 2 4 11 9 10 9 8 8 7 6 4 5 6 9 9 9 9 10 8 3 2 5 4 3 4 5 6 6 5 5 4
3 3 3 9 8 8 7 5 4 7 5 4 7 3 5 7 7 7 11 8 8 8 5 5 7 4 6 8 9 2 9 6 5 4 6 7 6 5 3 2 4 6 5 5
6 3 5 5 6 3 4 3 2 6 5 6 3 12 7 9 10 7 7 9 9 7 5 4 6 5 5 4 7 7 6 6 4 2 5 7 6 6 6 4 5 5 5 4
4 3 2 3 2 2 3 4 5 4 5 8 11 20 20 15 13 9 10 9 12 11 9 7 7 5 6 6 7 6 6 4 4 5 3 4 4 5 5 5 5 5 7 5
3 3 1 4 10 7 5 12 6 3 8 7 18 9 7 11 10 10 11 11 14 12 11 10 9 7 9 8 8 7 7 7 7 6 6 5 4 5 6 5 3 4 6 7
3 3 4 2 5 3 9 10 5 3 2 23 16 8 17 14 14 13 15 14 14 11 11 9 8 6 7 9 10 11 10 10 9 8 8 7 4 6 5 4 4 5 5 5
3 3 2 4 4 5 6 6 6 8 7 3 15 20 16 14 10 6 10 16 14 16 12 8 7 7 8 9 12 11 11 11 10 9 8 8 6 7 1 5 5 5 4 5
4 5 5 4 4 4 5 4 5 1 5 5 18 18 17 15 15 8 9 10 14 14 11 8 9 10 11 10 10 11 11 10 11 10 10 9 8 8 8 8 6 4 4 3
6 7 6 2 4 7 6 6 5 3 3 5 18 22 21 19 9 7 10 13 13 16 13 10 10 11 11 6 9 12 10 10 10 9 9 8 7 7 7 5 6 4 3 4
5 5 4 1 2 2 4 11 6 2 7 7 8 9 16 9 3 8 8 12 13 12 13 14 10 10 6 5 9 11 9 9 5 5 7 8 8 7 7 5 6 6 5 7
3 3 0 2 3 1 6 7 3 3 2 11 10 8 9 11 14 11 8 13 14 14 11 11 12 9 5 5 10 7 9 4 6 6 8 8 7 6 6 7 8 9 9 9
2 5 5 5 6 5 5 2 4 4 3 4 12 9 14 17 12 10 10 12 11 12 9 8 11 9 6 6 7 8 4 6 6 7 7 6 7 7 7 7 8 7 9 8
3 2 4 4 4 3 5 5 6 7 9 9 11 13 16 15 12 12 10 11 9 8 9 7 9 8 7 6 7 6 5 6 6 7 6 6 6 7 7 5 5 5 6 5
4 4 2 1 2 2 5 3 7 10 12 12 10 12 13 16 12 11 10 10 9 8 6 6 8 7 7 6 6 5 5 6 6 6 5 6 5 6 6 6 5 5 4 3
1 4 4 6 2 2 4 4 3 9 10 12 14 10 11 15 14 12 10 8 8 8 6 6 6 7 6 6 6 5 5 6 5 5 4 4 4 4 4 4 4 7 8 9
Wind_Direction
189 118 188 205 172 135 106 54 100 104 125 307 51 144 175 167 174 192 162 150 161 172 167 167 167 157 150 149 151 157 149 156 134 115 106 94 155 68 30 117 148 147 159 169
43 207 205 172 157 132 125 121 73 112 157 218 130 155 178 163 197 194 148 158 164 159 158 160 159 157 166 170 163 166 167 161 157 125 125 125 145 120 13 95 71 125 149 163
159 237 168 157 132 125 137 174 169 143 138 74 83 83 183 219 135 267 196 173 169 161 157 164 163 171 170 179 174 180 181 164 155 132 105 66 49 41 28 4 304 213 203 192
229 224 149 128 211 135 182 191 185 147 133 164 230 201 241 197 219 189 218 174 174 167 163 168 169 172 182 185 178 183 174 160 154 153 131 142 156 166 225 174 206 197 210 222
244 181 180 185 212 151 220 174 176 160 110 110 248 113 175 145 211 189 198 161 168 167 169 176 177 181 187 173 183 182 162 164 156 160 154 145 155 185 218 188 198 193 179 206
221 232 162 210 229 174 158 93 44 55 90 143 198 153 237 190 194 183 182 157 151 157 173 185 184 177 183 173 176 174 169 172 164 158 162 161 177 192 187 196 207 186 206 213
328 268 230 175 246 28 118 86 28 32 341 223 170 146 222 284 229 178 186 151 167 155 172 183 190 185 179 179 175 176 171 176 175 171 167 171 185 181 196 199 195 172 185 201
176 325 172 180 181 182 179 154 153 175 193 267 102 230 316 326 214 207 145 155 117 159 153 198 187 194 188 187 179 178 180 176 180 174 180 180 179 190 200 204 199 192 200 196
176 268 283 189 172 147 183 146 193 114 349 88 204 322 156 52 72 119 106 98 96 130 149 185 155 151 227 198 188 188 182 180 186 179 168 190 179 199 211 212 187 198 213 224
265 273 271 276 147 58 152 164 78 16 132 123 275 248 248 165 129 102 96 97 92 65 68 172 186 190 210 195 168 164 168 174 170 166 174 191 200 212 197 186 214 210 228 216
190 132 283 310 126 172 59 90 57 111 117 146 139 255 227 168 118 114 103 95 101 84 87 102 79 83 142 113 104 90 87 124 160 152 155 191 208 226 227 225 232 244 236 221
17 140 159 251 282 263 288 163 132 119 228 58 117 226 52 114 130 126 114 97 77 68 61 67 107 122 129 111 98 115 104 86 18 162 137 139 221 215 221 215 240 247 248 213
328 23 32 340 2 2 49 337 98 109 94 187 121 193 133 143 144 136 138 124 107 92 70 72 73 87 135 147 128 130 113 94 86 59 79 58 55 38 12 352 292 257 229 219
85 63 127 148 252 259 333 304 197 116 122 149 201 142 175 179 147 115 114 108 97 95 102 87 83 65 88 98 95 115 134 141 141 62 77 56 58 60 31 26 44 7 303 240
99 125 167 194 275 247 240 298 180 136 167 142 172 168 185 172 152 141 130 130 111 106 95 95 90 80 79 73 82 86 75 112 161 190 141 99 85 78 67 13 359 37 26 336
16 181 121 11 341 346 38 19 9 90 108 50 143 122 159 141 128 140 136 127 111 102 98 88 83 80 84 87 83 76 65 58 64 69 92 96 87 56 43 28 350 13 29 21
45 115 79 296 281 354 22 342 322 10 284 138 158 180 153 146 151 155 145 135 118 107 98 82 74 69 66 71 75 64 61 64 68 67 66 74 88 81 41 9 20 28 30 25
102 72 57 202 357 49 257 321 52 76 36 83 114 144 147 148 141 129 126 127 124 119 107 92 88 86 79 80 74 74 67 61 58 55 54 51 41 82 94 63 38 24 25 17
51 108 62 106 89 298 316 1 18 49 355 162 130 141 147 127 105 94 121 124 127 117 109 99 87 89 82 70 68 65 56 55 49 40 39 38 33 43 39 19 14 23 24 333
49 63 105 105 121 168 275 288 19 120 58 149 152 152 144 144 145 161 151 132 119 114 109 96 91 80 70 56 77 73 56 52 38 26 29 32 30 26 25 7 4 353 347 308
358 358 104 79 148 302 263 303 298 117 229 165 155 162 156 153 142 131 129 113 113 111 109 108 89 86 83 62 77 70 59 46 17 26 38 37 24 38 19 9 25 14 353 21
135 109 229 66 80 222 350 328 196 242 352 137 140 156 128 129 124 130 123 115 118 115 109 103 102 98 91 74 81 73 68 28 28 36 40 31 23 25 19 26 18 30 27 35
1 173 180 155 208 250 285 310 308 200 120 124 138 137 138 136 139 139 127 124 122 120 110 103 108 101 70 74 86 82 34 44 48 47 36 24 20 20 17 31 25 33 28 27
317 117 95 64 319 339 339 37 42 62 86 87 100 133 139 132 134 123 125 125 118 117 119 119 108 101 93 84 80 97 85 71 63 50 35 26 30 18 17 28 32 47 36 24
217 17 125 344 296 21 4 3 117 102 109 104 107 126 130 125 132 132 133 131 130 126 118 119 121 122 121 109 93 86 78 74 64 57 38 23 26 27 18 16 11 25 11 28
330 175 145 214 229 185 253 292 267 125 137 138 134 130 147 142 145 148 141 139 132 128 124 116 120 120 129 119 109 97 87 89 83 67 53 44 34 20 21 20 8 357 4 0